Location: Newark
(12.6500°N, 8.0000°W)
Time: 02:23:44
(UTC+00:00)

Hubble Space Telescope - Visible Passes

Search period start: 23 March 2019 00:00
Search period end: 02 April 2019 00:00
Orbit: 537 x 540 km, 28.5° (Epoch: 22 March)

Date Brightness Start Highest point End Pass type
(mag) Time Alt. Az. Time Alt. Az. Time Alt. Az.
23 Mar 2.9 05:07:19 15° S 05:07:19 15° S 05:08:32 10° SSE visible
23 Mar 2.9 20:23:32 10° WNW 20:26:28 18° NNW 20:26:57 18° N visible
24 Mar 3.1 20:13:37 10° NW 20:16:07 15° NNW 20:17:23 14° N visible
25 Mar 3.3 20:03:48 10° NW 20:05:47 13° NNW 20:07:45 10° NNE visible
26 Mar 3.4 19:54:08 10° NNW 19:55:29 11° NNW 19:56:51 10° N visible
27 Mar 3.6 19:45:04 10° N 19:45:12 10° N 19:45:19 10° N visible
31 Mar 3.6 20:44:01 10° NNW 20:44:18 11° NNW 20:44:18 11° NNW visible
01 Apr 3.3 20:33:13 10° NNW 20:34:27 14° N 20:34:27 14° N visible
